Regional Weather Roundup
Issued by NWS

Home | Current Version | Previous Version | Text Only | Print | Product List | Glossary Off
Versions: 1 2 3 4 5 6 7 8 9 10 11 12 13 14 15 16 17 18 19 20 21 22 23 24 25 26 27 28 29 30

000
ASUS45 KGTF 172310
RWRMT
MONTANA HOURLY WEATHER ROUNDUP
NATIONAL WEATHER SERVICE GREAT FALLS MT
500 PM MDT FRI APR 17 2015

NOTE: "FAIR" INDICATES FEW OR NO CLOUDS BELOW 12000 FEET WITH NO
SIGNIFICANT WEATHER AND/OR OBSTRUCTIONS TO VISIBILITY.

MTZ001>007-043-180000-
WEST OF THE DIVIDE

CITY           SKY/WX    TMP DP  RH WIND       PRES   REMARKS
KALISPELL      CLEAR     66  31  27 S10       30.01F
MISSOULA       SUNNY     70  30  22 VRB5      30.02F
BUTTE          SUNNY     62  21  20 NE7       30.07F
DEER LODGE       N/A     64  25  22 N6        30.09F
EUREKA           N/A     72  28  20 S13G18    29.99F
HAMILTON         N/A     72  25  17 NE2       30.02F
LIBBY            N/A     70  27  19 W7        30.03F
$$

MTZ008-052>055-180000-
SOUTHWEST MONTANA

CITY           SKY/WX    TMP DP  RH WIND       PRES   REMARKS
BOZEMAN        SUNNY     61  26  26 CALM      30.06F
DILLON         SUNNY     62  12  14 SE5       30.05F
$$

MTZ009-010-012-014-046-048-049-054-180000-
EAST SLOPES AND CENTRAL MONTANA

CITY           SKY/WX    TMP DP  RH WIND       PRES   REMARKS
CUT BANK       SUNNY     69  28  21 SW14      29.97F
GREAT FALLS    SUNNY     68  29  23 S8        30.00F
MALMSTROM AFB  SUNNY     68  31  25 SW8       30.00F
HELENA         SUNNY     68  25  19 E14       30.01F
$$

MTZ011-013-016-021-045-047-050-051-180000-
NORTH CENTRAL MONTANA

CITY           SKY/WX    TMP DP  RH WIND       PRES   REMARKS
HAVRE          SUNNY     70  30  22 SW15G22   29.98F
LEWISTOWN      SUNNY     66  28  24 E13       30.04F
FORT BENTON      N/A     72  30  21 S5        30.00F
$$

MTZ017>020-022>042-056>058-061-062-180000-
EASTERN PLAINS

CITY           SKY/WX    TMP DP  RH WIND       PRES   REMARKS
BAKER          MOSUNNY   66  30  26 SE10      30.09F
BILLINGS       SUNNY     65  27  23 SE6       30.06F
GLASGOW        SUNNY     70  22  16 MISG      30.04F
JORDAN           N/A     70  19  14 SE8       30.03F
LIVINGSTON     SUNNY     66  13  12 E7        30.05F
MILES CITY     SUNNY     68  29  23 S9        30.05F
SIDNEY         SUNNY     70  25  18 N7        30.07F
WOLF POINT     SUNNY     72  25  17 CALM      30.05F
BIG TIMBER       N/A     63  18  17 NE6       30.06F
FORSYTH          N/A     70  30  23 SE6       30.05F
PLENTYWOOD       N/A     66  27  22 NE3       30.08F
POPLAR           N/A     70  25  18 E6        30.05F
$$

REGIONAL REPORTS...DAKOTAS

CITY           SKY/WX    TMP DP  RH WIND       PRES   REMARKS
WILLISTON      SUNNY     70  25  18 N9        30.07F
MINOT          SUNNY     66  27  23 N16G24    30.07F
DICKINSON      MOSUNNY   69  18  14 E7        30.07F
BEACH          FAIR      66  19  16 E8        30.09F
CROSBY         FAIR      64  23  20 NE10      30.10F
WATFORD CITY   FAIR      68  23  18 N8        30.05F
BISMARCK       PTSUNNY   72  25  17 VRB5      30.06F
GRAND FORKS    SUNNY     69  30  23 N25G31    30.01R
FARGO          SUNNY     76  17  11 NW7       30.01F
BUFFALO SD       N/A     65  27  23 E7        30.04F
RAPID CITY     CLOUDY    52  39  61 SW9       30.12F
$$

REGIONAL REPORTS...WYOMING/IDAHO/WASHINGTON

CITY           SKY/WX    TMP DP  RH WIND       PRES   REMARKS
GILLETTE       CLOUDY    60  35  39 NE12      30.10F
SHERIDAN       MOSUNNY   61  34  36 CALM      30.08F
BUFFALO WY     PTSUNNY   59  29  31 S6        30.12F
CODY           SUNNY     57  28  33 N8        30.09F
YELLOWSTONE LA   N/A     53   6  15 CALM      30.14F
IDAHO FALLS    SUNNY     67  15  13 SW8       30.03F
SALMON         SUNNY     68  12  11 CALM      30.01F
BOISE          SUNNY     71  26  18 NW12      30.05F
SPOKANE        MOSUNNY   68  33  27 SW10      30.09F
$$

REGIONAL REPORTS...ALBERTA

CITY           SKY/WX    TMP DP  RH WIND       PRES   REMARKS
EDMONTON       PTSUNNY   59  28  31 SE5       29.84F
CALGARY        PTSUNNY   66  23  19 W29G36    29.89F
LETHBRIDGE     PTSUNNY   70  28  21 W17G29    29.91F
MEDICINE HAT   MOSUNNY   72  28  20 S14G22    29.93F
$$

REGIONAL REPORTS...SASKATCHEWAN

CITY           SKY/WX    TMP DP  RH WIND       PRES   REMARKS
SWIFT CURRENT  SUNNY     66  25  20 S14G21    30.01F
REGINA         MOSUNNY   61  23  23 NW3       30.12F
SASKATOON      MOSUNNY   63  18  17 SE7       30.07F
$$



USA.gov is the U.S. government's official web portal to all federal, state and local government web resources and services.